Regional Weather Roundup
Issued by NWS Newport/Morehead, NC

Current Version | Previous Version | Graphics & Text | Print | Product List | Glossary Off
Versions: 1 2 3 4 5 6 7 8 9 10 11 12 13 14 15 16 17 18 19 20 21 22 23 24 25 26 27 28 29 30 31 32 33 34 35 36 37 38 39 40 41 42 43 44 45 46 47 48 49 50

000
ASUS42 KMHX 010125
RWRMHX
WEATHER ROUNDUP FOR EASTERN NORTH CAROLINA
NATIONAL WEATHER SERVICE NEWPORT/MOREHEAD CITY NC
900 PM EDT TUE JUN 30 2015

NOTE: "FAIR" INDICATES FEW OR NO CLOUDS BELOW 12,000 FEET
WITH NO SIGNIFICANT WEATHER AND/OR OBSTRUCTIONS TO VISIBILITY

NCZ015>017-031-032-045>047-102-103-010200-
NORTH COAST

CITY           SKY/WX    TMP DP  RH WIND       PRES   REMARKS
EDENTON        NOT AVBL
ELIZABETH CITY FAIR      77  62  59 W9        29.92R
KITTY HAWK     NOT AVBL
MANTEO         NOT AVBL

$$

NCZ045>047-081-094-103-104-010200-
CENTRAL COAST

CITY           SKY/WX    TMP DP  RH WIND       PRES   REMARKS
FRISCO         FAIR      80  73  79 SW15G24   29.94R
SWANQUARTER      N/A     82 N/A N/A SW16G30   29.88S

$$

NCZ095-097-098-100-101-010200-
SOUTHERN COAST

CITY           SKY/WX    TMP DP  RH WIND       PRES   REMARKS
BEAUFORT       FAIR      81  74  79 MISG      29.95R
CEDAR ISLAND     N/A     81 N/A N/A S10G21    29.97S
JACKSONVILLE   FAIR      80  69  69 S10       29.94R
PINEY ISLAND   FAIR     N/A N/A N/A SW16G23   29.94R
WILMINGTON     FAIR      81  70  69 SW17G23   29.95S


$$

NCZ011>013-027>030-043-044-078>080-089-090>093-098-010200-
COASTAL PLAIN

CITY           SKY/WX    TMP DP  RH WIND       PRES   REMARKS
AHOSKIE        NOT AVBL
CLINTON        NOT AVBL
ELIZABETHTOWN  NOT AVBL
GOLDSBORO      PTCLDY    82  70  65 SW17G24   29.91R
GREENVILLE     NOT AVBL
HAVELOCK       FAIR      80  70  71 SW14G22   29.95R
KENANSVILLE    NOT AVBL
KINSTON        FAIR      82  66  57 S13       29.92R
NEW BERN       FAIR      80  69  69 S10G21    29.94R
RICHLANDS      FAIR      81  64  57 SW13      29.95R
ROCKY MOUNT    MOCLDY    85  68  56 S17G24    29.90R
WASHINGTON     NOT AVBL
WHITEVILLE     NOT AVBL

$$

AMZ130-135-150-152-154-156-158-170-250-252-270-ANZ085-086-088-633-658-670-010200-
MARINE OBSERVATIONS

STATION/POSITION TIME  TEMP    WIND        PRES    WAVE   SWELL
                       AIR SEA DIR/SP/G            HT/PER HT/PER
                 (UTC) (F)     (DEG/KT/KT) (MB)    (FT/S) (FT/S)
CHESAPEAKE LIGHT 0100   81     180/ 21/ 22 1012.0
64 E VA BEACH    0050   78 76  190/ 17/ 19 1012.0    4/ 7   2/ 8
DUCK             0100   84 71  210/ 15/ 22 1011.9
2 E DUCK         0011      76                N/A     2/ 8
OREGON INLET     0100   82 84  200/ 22/ 25 1013.4
13E OREGON INLT  0100      73                N/A     4/ 8
HATTERAS CG      0100   81 83  210/ 16/ 22 1013.7
DIAMOND BUOY     0050   82 82  210/ 23/ 27 1013.4    4/ 4   2/ 7
CAPE LOOKOUT     0100   81     210/ 16/ 21 1014.1
BEAUFORT LAB     0100   81 81  220/ 15/ 20 1013.6
30 SE NEW RVR IN NOT AVBL
27 SE WRIGHTSVLE 0100      81  230/ 17/ 19   N/A
5 SE WRIGHTSVLE  0008   82 79  220/ 21/ 27 1013.8
225 S CAPE HAT   0050   81 80  230/ 16/ 19 1017.7    5/ 8   3/ 8
41 SE CHARLESTON 0050   82 83  200/ 17/ 21 1014.2    5/ 5   2/ 8

$$


USA.gov is the U.S. government's official web portal to all federal, state and local government web resources and services.